Highgate, VT

6:44 PM EDT on March 28, 2017 (GMT -0400)
Franklin County State

Weather History for KFSO - February, 2014

Change the Weather History Date:

Saturday, February 22, 2014

  Actual Average (KPBG) Record (KPBG)
Temperature  
Mean Temperature 42 °F -  
Max Temperature 48 °F 34 °F 58 °F (1981)
Min Temperature 35 °F 16 °F -15 °F (1972)
Degree Days  
Heating Degree Days 24    
Moisture  
Dew Point 21 °F    
Average Humidity 47    
Maximum Humidity 88    
Minimum Humidity 22    
Precipitation  
Precipitation 0.00 in - - ()
Sea Level Pressure  
Sea Level Pressure 29.75 in    
Wind  
Wind Speed 8 mph (SW)    
Max Wind Speed 18 mph    
Max Gust Speed 33 mph    
Visibility 10 miles    
Events      
Averages and records for this station are not official NWS values.
T = Trace of Precipitation, MM = Missing Value Source: NWS Daily Summary

Daily Weather History Graph

Daily Weather History Graph

Search for Another Location

Airport or City:

Trip Planner

Search our weather history database for the weather conditions in past years. The results will help you decide how hot, cold, wet, or windy it might be!

Date:

Astronomy

Feb. 22, 2014 Rise Set
Actual Time 6:42 AM EST 5:30 PM EST
Civil Twilight 6:12 AM EST 6:00 PM EST
Nautical Twilight 5:38 AM EST 6:34 PM EST
Astronomical Twilight 5:04 AM EST 7:08 PM EST
Moon 12:40 AM EST (2/22) 10:32 AM EST (2/22)
Length of Visible Light 11h 47m
Length of Day
10h 48m
Waning Gibbous, 50% of the Moon is Illuminated
Feb 22
Waning Gibbous
Feb 22
Last Quarter
Mar 1
New
Mar 8
First Quarter
Mar 16
Full

Hourly Weather History & Observations

Time (EST) Temp. Windchill Dew Point Humidity Pressure Visibility Wind Dir Wind Speed Gust Speed Precip Events Conditions
12:15 AM 37.2 °F 31.2 °F 34.0 °F 88% 29.71 in 10.0 mi South 8.1 mph - N/A   Scattered Clouds
12:35 AM 38.3 °F 33.9 °F 34.9 °F 87% 29.72 in 10.0 mi South 5.8 mph - N/A   Mostly Cloudy
12:55 AM 38.3 °F 34.8 °F 34.2 °F 85% 29.73 in 10.0 mi South 4.6 mph - N/A   Overcast
1:15 AM 38.3 °F 33.2 °F 32.4 °F 79% 29.73 in 10.0 mi SSW 6.9 mph - N/A   Mostly Cloudy
1:35 AM 38.3 °F 33.2 °F 31.1 °F 75% 29.74 in 10.0 mi South 6.9 mph - N/A   Scattered Clouds
1:55 AM 40.3 °F 36.3 °F 31.8 °F 72% 29.74 in 10.0 mi South 5.8 mph - N/A   Overcast
2:15 AM 38.3 °F 31.9 °F 30.6 °F 74% 29.74 in 10.0 mi South 9.2 mph - N/A   Mostly Cloudy
2:35 AM 40.6 °F 35.4 °F 30.0 °F 66% 29.74 in 10.0 mi SSW 8.1 mph - N/A   Mostly Cloudy
2:55 AM 41.0 °F 37.1 °F 27.5 °F 59% 29.73 in 10.0 mi South 5.8 mph - N/A   Overcast
3:15 AM 40.3 °F 34.9 °F 28.9 °F 64% 29.73 in 10.0 mi SSW 8.1 mph - N/A   Scattered Clouds
3:35 AM 38.3 °F 33.9 °F 27.1 °F 64% 29.73 in 10.0 mi South 5.8 mph - N/A   Scattered Clouds
3:55 AM 38.3 °F 33.2 °F 27.0 °F 64% 29.74 in 10.0 mi SSW 6.9 mph - N/A   Clear
4:15 AM 38.3 °F 34.8 °F 27.5 °F 65% 29.74 in 10.0 mi SSW 4.6 mph - N/A   Clear
4:35 AM 38.3 °F 33.9 °F 28.2 °F 67% 29.75 in 10.0 mi SSW 5.8 mph - N/A   Clear
4:55 AM 38.3 °F 34.8 °F 28.4 °F 68% 29.75 in 10.0 mi SSW 4.6 mph - N/A   Clear
5:15 AM 37.4 °F 32.8 °F 28.0 °F 69% 29.75 in 10.0 mi SSW 5.8 mph - N/A   Clear
5:35 AM 36.9 °F 32.2 °F 27.5 °F 69% 29.76 in 10.0 mi SSW 5.8 mph - N/A   Clear
5:55 AM 36.9 °F 31.4 °F 27.1 °F 68% 29.77 in 10.0 mi SSW 6.9 mph - N/A   Clear
6:15 AM 38.3 °F 30.1 °F 21.4 °F 51% 29.76 in 10.0 mi SW 13.8 mph 19.6 mph N/A   Clear
6:35 AM 38.3 °F 31.9 °F 18.9 °F 46% 29.76 in 10.0 mi SSW 9.2 mph 21.9 mph N/A   Clear
6:55 AM 38.3 °F 31.9 °F 18.3 °F 45% 29.76 in 10.0 mi SSW 9.2 mph 21.9 mph N/A   Clear
7:15 AM 38.3 °F 33.2 °F 17.8 °F 44% 29.76 in 10.0 mi SSW 6.9 mph 18.4 mph N/A   Clear
7:35 AM 38.8 °F 32.1 °F 18.7 °F 44% 29.76 in 10.0 mi SSW 10.4 mph 17.3 mph N/A   Clear
7:55 AM 41.0 °F 35.2 °F 19.4 °F 42% 29.77 in 10.0 mi SSW 9.2 mph 16.1 mph N/A   Clear
8:15 AM 41.0 °F 35.2 °F 19.4 °F 42% 29.76 in 10.0 mi South 9.2 mph 16.1 mph N/A   Clear
8:35 AM 41.0 °F 35.8 °F 19.0 °F 41% 29.75 in 10.0 mi South 8.1 mph - N/A   Clear
8:55 AM 42.1 °F 35.7 °F 19.4 °F 40% 29.75 in 10.0 mi South 11.5 mph 18.4 mph N/A   Clear
9:15 AM 42.1 °F 36.6 °F 19.6 °F 41% 29.75 in 10.0 mi SSW 9.2 mph 20.7 mph N/A   Scattered Clouds
9:35 AM 42.1 °F 36.6 °F 20.7 °F 42% 29.75 in 10.0 mi SSW 9.2 mph - N/A   Mostly Cloudy
9:55 AM 43.0 °F 37.7 °F 21.9 °F 43% 29.75 in 10.0 mi SSW 9.2 mph 18.4 mph N/A   Mostly Cloudy
10:15 AM 42.1 °F 36.1 °F 21.9 °F 45% 29.74 in 10.0 mi South 10.4 mph 21.9 mph N/A   Overcast
10:35 AM 42.1 °F 36.6 °F 22.3 °F 45% 29.74 in 10.0 mi South 9.2 mph 19.6 mph N/A   Overcast
10:55 AM 42.1 °F 37.1 °F 22.8 °F 46% 29.74 in 10.0 mi SSW 8.1 mph 19.6 mph N/A   Mostly Cloudy
11:15 AM 44.4 °F 38.6 °F 23.4 °F 43% 29.74 in 10.0 mi SSW 11.5 mph 19.6 mph N/A   Mostly Cloudy
11:35 AM 43.3 °F 37.7 °F 23.9 °F 46% 29.72 in 10.0 mi South 10.4 mph 19.6 mph N/A   Overcast
11:55 AM 45.9 °F 42.9 °F 23.2 °F 41% 29.71 in 10.0 mi SSW 5.8 mph - N/A   Overcast
12:15 PM 45.5 °F 43.2 °F 23.0 °F 41% 29.70 in 10.0 mi SSW 4.6 mph 16.1 mph N/A   Overcast
12:35 PM 45.9 °F 40.8 °F 23.2 °F 41% 29.69 in 10.0 mi SSW 10.4 mph 17.3 mph N/A   Mostly Cloudy
12:55 PM 45.7 °F 39.8 °F 23.9 °F 42% 29.69 in 10.0 mi SSW 12.7 mph 21.9 mph N/A   Mostly Cloudy
1:15 PM 45.3 °F 39.7 °F 24.3 °F 44% 29.68 in 10.0 mi SSW 11.5 mph 19.6 mph N/A   Mostly Cloudy
1:35 PM 45.1 °F 39.1 °F 24.1 °F 44% 29.67 in 10.0 mi SSW 12.7 mph 21.9 mph N/A   Overcast
1:55 PM 47.5 °F - 22.6 °F 38% 29.67 in 10.0 mi SW 12.7 mph 25.3 mph N/A   Overcast
2:15 PM 46.0 °F 38.8 °F 22.6 °F 40% 29.67 in 10.0 mi SW 18.4 mph 26.5 mph N/A   Overcast
2:35 PM 44.6 °F 37.8 °F 22.6 °F 42% 29.68 in 10.0 mi SW 15.0 mph 31.1 mph N/A   Overcast
2:55 PM 47.1 °F - 24.4 °F 41% 29.67 in 10.0 mi SW 10.4 mph 19.6 mph N/A   Overcast
3:15 PM 48.4 °F - 21.4 °F 35% 29.67 in 10.0 mi SW 11.5 mph 23.0 mph N/A   Scattered Clouds
3:35 PM 48.4 °F - 15.3 °F 27% 29.67 in 10.0 mi SW 12.7 mph 24.2 mph N/A   Scattered Clouds
3:55 PM 48.4 °F - 11.8 °F 23% 29.68 in 10.0 mi SW 11.5 mph 31.1 mph N/A   Clear
4:15 PM 48.4 °F - 10.9 °F 22% 29.68 in 10.0 mi WSW 16.1 mph 33.4 mph N/A   Clear
4:35 PM 47.1 °F - 10.0 °F 22% 29.69 in 10.0 mi SW 18.4 mph 28.8 mph N/A   Clear
4:55 PM 44.8 °F 38.0 °F 11.3 °F 26% 29.71 in 10.0 mi WSW 15.0 mph 27.6 mph N/A   Clear
5:15 PM 43.3 °F 37.2 °F 13.1 °F 29% 29.72 in 10.0 mi West 11.5 mph 20.7 mph N/A   Clear
5:35 PM 42.1 °F 38.4 °F 15.1 °F 34% 29.73 in 10.0 mi West 5.8 mph - N/A   Clear
5:55 PM 41.2 °F 36.6 °F 14.4 °F 34% 29.73 in 10.0 mi West 6.9 mph 16.1 mph N/A   Clear
6:15 PM 41.2 °F 35.0 °F 12.7 °F 31% 29.74 in 10.0 mi WSW 10.4 mph 24.2 mph N/A   Clear
6:35 PM 41.2 °F 35.0 °F 10.8 °F 29% 29.75 in 10.0 mi WSW 10.4 mph 29.9 mph N/A   Clear
6:55 PM 41.0 °F 36.4 °F 12.4 °F 31% 29.77 in 10.0 mi West 6.9 mph - N/A   Clear
7:15 PM 40.5 °F 37.3 °F 12.9 °F 33% 29.78 in 10.0 mi WSW 4.6 mph - N/A   Clear
7:35 PM 39.0 °F 31.8 °F 12.0 °F 33% 29.78 in 10.0 mi WSW 11.5 mph 19.6 mph N/A   Clear
7:55 PM 38.3 °F 29.7 °F 14.2 °F 37% 29.79 in 10.0 mi WSW 15.0 mph 23.0 mph N/A   Clear
8:15 PM 38.3 °F 30.5 °F 13.3 °F 36% 29.80 in 10.0 mi West 12.7 mph 23.0 mph N/A   Clear
8:35 PM 38.3 °F 30.1 °F 14.0 °F 37% 29.81 in 10.0 mi WSW 13.8 mph 23.0 mph N/A   Clear
8:55 PM 38.3 °F 31.4 °F 13.6 °F 37% 29.83 in 10.0 mi WSW 10.4 mph 25.3 mph N/A   Clear
9:15 PM 38.3 °F 30.5 °F 15.4 °F 39% 29.84 in 10.0 mi WSW 12.7 mph 20.7 mph N/A   Clear
9:35 PM 37.2 °F 31.9 °F 15.6 °F 41% 29.85 in 10.0 mi WSW 6.9 mph 18.4 mph N/A   Clear
9:55 PM 36.7 °F 30.5 °F 15.3 °F 42% 29.85 in 10.0 mi WSW 8.1 mph - N/A   Clear
10:15 PM 35.8 °F 30.9 °F 14.5 °F 42% 29.86 in 10.0 mi WSW 5.8 mph - N/A   Clear
10:35 PM 35.6 °F 28.6 °F 14.2 °F 42% 29.86 in 10.0 mi WSW 9.2 mph - N/A   Clear
10:55 PM 35.6 °F 30.7 °F 14.7 °F 42% 29.87 in 10.0 mi WSW 5.8 mph - N/A   Clear
11:15 PM 35.6 °F 31.7 °F 14.9 °F 43% 29.87 in 10.0 mi SW 4.6 mph - N/A   Clear
11:35 PM 35.6 °F 30.7 °F 15.4 °F 44% 29.87 in 10.0 mi SW 5.8 mph - N/A   Clear
11:55 PM 35.6 °F 31.7 °F 16.2 °F 45% 29.88 in 10.0 mi WSW 4.6 mph - N/A   Mostly Cloudy